Hourly Weather Roundup
Issued by NWS Central Illinois

Home | Current Version | Previous Version | Text Only | Print | Product List | Glossary On
Versions: 1 2 3 4 5 6 7 8 9 10 11 12 13 14 15 16 17 18 19 20 21 22 23 24 25 26 27 28 29 30 31 32 33 34 35 36 37 38 39 40 41 42 43 44 45 46 47 48 49 50
000
NZUS43 KILX 040310
HWRILX

AREA WEATHER ROUNDUP
NATIONAL WEATHER SERVICE, LINCOLN IL
1000 PM CDT MON AUG 03 2015


CITY           SKY/WX    TMP DP  RH WIND       PRES   REMARKS
BLOOMINGTON    CLEAR     72  60  65 CALM      29.97R
CHAMPAIGN      CLEAR     67  61  81 N6        29.95R
DANVILLE       CLEAR     67  60  80 NW6       29.92R
DECATUR        CLEAR     73  62  68 N3        29.95R
EFFINGHAM      CLEAR     74  62  66 CALM      29.95R
FLORA          CLEAR     76  67  73 NW5       29.94R
GALESBURG      CLEAR     65  61  87 CALM      29.96R
JACKSONVILLE   CLEAR     73  69  88 CALM      29.95R
LACON          CLEAR     64  61  89 CALM      29.94R
LAWRENCEVILLE  CLEAR     75  69  81 NW6       29.92R
LITCHFIELD     CLEAR     72  67  85 N3        29.95R
$$


CITY           SKY/WX    TMP DP  RH WIND       PRES   REMARKS
LINCOLN        CLEAR     72  62  70 CALM      29.95R
MACOMB         CLEAR     65  63  92 NW3       29.98R
MATTOON        CLEAR     70  64  81 NW5       29.93R
MT CARMEL AP   CLEAR     75  68  78 W5        29.92R
OLNEY-NOBLE AP CLEAR     73  68  83 CALM      29.93R
PARIS          CLEAR     68  65  90 CALM      29.94R
PEORIA         CLEAR     71  59  65 NW3       29.95R
PONTIAC        CLEAR     67  62  82 W3        29.95R
RANTOUL        CLEAR     73  59  62 NW6       29.95R
ROBINSON       CLEAR     71  67  88 NW3       29.92R
SPRINGFIELD    CLEAR     71  66  84 CALM      29.95R
TAYLORVILLE    CLEAR     68  66  94 CALM      29.95R
$$

...REGIONAL REPORTS...


CITY           SKY/WX    TMP DP  RH WIND       PRES   REMARKS
CHICAGO O`HARE PTCLDY    70  54  56 W6        29.90R
KANKAKEE       CLEAR     65  58  79 CALM      29.94R
MOLINE         CLEAR     64  58  80 SW5       29.94R
MOUNT STERLING NOT AVBL
MOUNT VERNON   CLEAR     73  66  78 CALM      29.94R
PITTSFIELD     MOCLDY    75  65  71 NW3       29.96R
QUINCY         PTCLDY    72  66  81 NW6       29.96R
ROCKFORD       CLEAR     67  55  65 W6        29.93R
$$


CITY           SKY/WX    TMP DP  RH WIND       PRES   REMARKS
BURLINGTON     CLEAR     68  61  78 N5        29.96R
CEDAR RAPIDS   CLEAR     63  60  90 W6        29.95R
DES MOINES     PTCLDY    74  55  51 N3        29.96R
KIRKSVILLE     MOCLDY    71  66  84 N5        29.97R
OTTUMWA        CLEAR     68  58  70 N3        29.95R
ST LOUIS       PTCLDY    82  69  64 N3        29.94R HX  85
$$


CITY           SKY/WX    TMP DP  RH WIND       PRES   REMARKS
TERRE HAUTE    CLEAR     71  65  81 CALM      29.92R
EVANSVILLE     CLEAR     82  70  66 NW5       29.92R HX  86
INDIANAPOLIS   CLEAR     74  62  66 NW8       29.91R
LAFAYETTE      CLEAR     64  58  80 NW3       29.92R
MADISON        PTCLDY    67  52  58 W5        29.91R
MILWAUKEE      PTCLDY    74  50  42 W6        29.88R
$$




USA.gov is the U.S. government's official web portal to all federal, state and local government web resources and services.